User: anonymous   Login
Location: Unspecified
(0.0000°N, 0.0000°E)
Time: 03:00:06
(UTC+00:00)
Language:

GSAT 12 - Orbit

View from above orbital plane
View from above orbital plane
View from above satellite
View from above satellite

Ground track
Ground track

The orbit data is extracted from the following two-line orbital elements,

1 37746U 11034A   19082.81177045 -.00000188  00000-0  00000+0 0  9996
2 37746   0.0597  95.1880 0015305 340.7440 120.2671  1.00271814 28460
Epoch (UTC): 23 March 2019 19:28:56
Eccentricity: 0.0015305
inclination: 0.0597°
perigee height: 35721 km
apogee height: 35851 km
right ascension of ascending node: 95.1880°
argument of perigee: 340.7440°
revolutions per day: 1.00271814
mean anomaly at epoch: 120.2671°
orbit number at epoch: 2846

The dashed part of the orbit path shows where the satellite is in the earth's shadow,  

DLR